Overview Statistics Trail Chart Weather Telemetry Raw packets
 

This is the latest recevied weather packets stored in our database for station/object W8RSN-13. If no packets are shown the sender has not sent any weather packets the latest 10 day(s).

<< 63 64 65 66 67 68 69 >>
Time Temp. Humidity Pressure Rain* Wind** Luminosity Snow
1788243258 21.67° C 56% 1016.3 hPa - - - -
1788242957 21.67° C 56% 1016.3 hPa - - - -
1788242657 21.67° C 55% 1016.4 hPa - - - -
1788242356 21.67° C 53% 1016.4 hPa - - - -
1788242075 21.67° C 52% 1016.3 hPa - - - -
1788241774 21.67° C 52% 1016.4 hPa - - - -
1788241473 21.67° C 53% 1016.3 hPa - - - -
1788241172 21.67° C 53% 1016.4 hPa - - - -
1788240871 21.67° C 53% 1016.3 hPa - - - -
1788240570 21.67° C 52% 1016.3 hPa - - - -
1788240270 21.67° C 51% 1016.3 hPa - - - -
1788239969 21.67° C 50% 1016.2 hPa - - - -
1788239668 22.22° C 50% 1016.1 hPa - - - -
1788239367 22.22° C 52% 1016.2 hPa - - - -
1788239066 22.22° C 51% 1015.9 hPa - - - -
1788238765 22.22° C 53% 1016 hPa - - - -
1788238464 22.22° C 54% 1016.2 hPa - - - -
1788238164 22.22° C 55% 1016 hPa - - - -
1788237862 22.22° C 55% 1016 hPa - - - -
1788237562 22.22° C 54% 1015.9 hPa - - - -
1788237260 22.22° C 54% 1016 hPa - - - -
1788236960 22.22° C 57% 1016 hPa - - - -
1788236659 22.78° C 57% 1015.8 hPa - - - -
1788236358 22.78° C 57% 1015.7 hPa - - - -
1788236057 22.78° C 56% 1015.9 hPa - - - -

* Rain since midnight (hover to see other rain measurements)
** Current wind speed in m/s (hover to see current wind gust speed)